| time (UTC) | temp F | wind direction | speed knots | gust knots | rain 1hr in | rain 24hr in | rain mn in | humidity % | barometer mb |
| 20260502162719 | 67 | 112 | 0.9 | 0.9 | 0.01 | 0.07 | 0.07 | 81 | 1016.9 |
| 20260502161719 | 68 | 22 | 0.0 | 0.0 | 0.02 | 0.07 | 0.07 | 81 | 1016.9 |
| 20260502160713 | 65 | 337 | 0.0 | 2.6 | 0.05 | 0.07 | 0.07 | 82 | 1016.8 |
| 20260502151414 | 71 | 270 | 0.0 | 0.0 | 0.00 | 0.00 | 0.00 | 60 | 1017.5 |
| 20260502150407 | 71 | 247 | 0.0 | 0.0 | 0.00 | 0.00 | 0.00 | 62 | 1017.6 |
| 20260502130302 | 77 | 112 | 0.9 | 4.3 | 0.00 | 0.00 | 0.00 | 46 | 1018.7 |
| 20260502123312 | 74 | 247 | 3.5 | 9.6 | 0.00 | 0.00 | 0.00 | 48 | 1019.0 |
| 20260502122258 | 75 | 202 | 2.6 | 8.7 | 0.00 | 0.00 | 0.00 | 48 | 1019.1 |
| 20260502120123 | 75 | 202 | 2.6 | 10.4 | 0.00 | 0.00 | 0.00 | 48 | 1019.3 |
| 20260502115111 | 76 | 90 | 2.6 | 8.7 | 0.00 | 0.00 | 0.00 | 47 | 1019.5 |
| 20260502114100 | 75 | 270 | 2.6 | 9.6 | 0.00 | 0.00 | 0.00 | 48 | 1019.7 |
| 20260502111918 | 74 | 225 | 2.6 | 7.0 | 0.00 | 0.00 | 0.00 | 48 | 1019.7 |
| 20260502110907 | 74 | 292 | 2.6 | 8.7 | 0.00 | 0.00 | 0.00 | 48 | 1019.9 |
| 20260502105842 | 73 | 270 | 3.5 | 8.7 | 0.00 | 0.00 | 0.00 | 48 | 1020.0 |
| 20260502104858 | 73 | 315 | 6.1 | 8.7 | 0.00 | 0.00 | 0.00 | 49 | 1020.0 |
| 20260502103828 | 73 | 315 | 2.6 | 7.0 | 0.00 | 0.00 | 0.00 | 48 | 1020.2 |
| 20260502102758 | 72 | 247 | 2.6 | 7.0 | 0.00 | 0.00 | 0.00 | 50 | 1020.3 |
| 20260502100724 | 70 | 135 | 3.5 | 8.7 | 0.00 | 0.00 | 0.00 | 50 | 1020.6 |
| 20260502090545 | 70 | 270 | 2.6 | 8.7 | 0.00 | 0.00 | 0.00 | 47 | 1021.0 |
| 20260502064623 | 67 | 135 | 0.0 | 3.5 | 0.00 | 0.00 | 0.00 | 47 | 1021.0 |
| 20260502062502 | 63 | 270 | 2.6 | 3.5 | 0.00 | 0.00 | 0.00 | 51 | 1021.4 |
| 20260502061436 | 62 | 247 | 0.9 | 2.6 | 0.00 | 0.00 | 0.00 | 51 | 1021.3 |
| 20260502060435 | 62 | 247 | 0.9 | 2.6 | 0.00 | 0.00 | 0.00 | 52 | 1021.1 |
| 20260502055407 | 62 | 135 | 0.9 | 2.6 | 0.00 | 0.00 | 0.00 | 51 | 1021.0 |
| 20260502054336 | 62 | 135 | 0.9 | 0.9 | 0.00 | 0.00 | 0.00 | 51 | 1021.2 |
| 20260502053354 | 61 | 135 | 0.9 | 0.9 | 0.00 | 0.00 | 0.00 | 52 | 1021.2 |
| 20260502052403 | 60 | 247 | 0.0 | 2.6 | 0.00 | 0.00 | 0.00 | 53 | 1021.4 |
| 20260502051349 | 59 | 157 | 0.9 | 2.6 | 0.00 | 0.00 | 0.00 | 53 | 1021.1 |
| 20260502044023 | 58 | 67 | 0.0 | 0.9 | 0.00 | 0.00 | 0.00 | 55 | 1021.3 |
| 20260502043043 | 57 | 90 | 0.0 | 2.6 | 0.00 | 0.00 | 0.00 | 55 | 1021.4 |
| 20260502042017 | 57 | 135 | 0.9 | 2.6 | 0.00 | 0.00 | 0.00 | 55 | 1021.4 |
| 20260502041022 | 57 | 112 | 0.9 | 2.6 | 0.00 | 0.00 | 0.00 | 56 | 1021.4 |
| 20260502040014 | 57 | 90 | 0.9 | 2.6 | 0.00 | 0.00 | 0.00 | 57 | 1021.4 |
| 20260502034958 | 57 | 45 | 0.9 | 2.6 | 0.00 | 0.00 | 0.00 | 56 | 1021.5 |
| 20260502033939 | 57 | 135 | 0.9 | 0.9 | 0.00 | 0.00 | 0.00 | 56 | 1021.7 |
| 20260502032921 | 57 | 90 | 0.0 | 0.9 | 0.00 | 0.00 | 0.00 | 56 | 1021.8 |
| 20260502031917 | 57 | 45 | 0.9 | 2.6 | 0.00 | 0.00 | 0.00 | 55 | 1021.7 |
| 20260502030926 | 57 | 112 | 0.0 | 2.6 | 0.00 | 0.00 | 0.00 | 56 | 1022.0 |
| 20260502025941 | 57 | 90 | 0.9 | 2.6 | 0.00 | 0.00 | 0.00 | 55 | 1021.8 |
| 20260502024959 | 57 | 112 | 0.0 | 2.6 | 0.00 | 0.00 | 0.00 | 55 | 1021.9 |
| 20260502022749 | 58 | 67 | 0.9 | 2.6 | 0.00 | 0.00 | 0.00 | 54 | 1022.0 |
| 20260502021726 | 58 | 135 | 0.9 | 2.6 | 0.00 | 0.00 | 0.00 | 54 | 1022.1 |
| 20260502020721 | 58 | 45 | 0.0 | 3.5 | 0.00 | 0.00 | 0.00 | 54 | 1022.1 |
| 20260502015724 | 58 | 180 | 0.9 | 3.5 | 0.00 | 0.00 | 0.00 | 54 | 1022.2 |
| 20260502014725 | 58 | 67 | 0.9 | 3.5 | 0.00 | 0.00 | 0.00 | 54 | 1022.1 |
| 20260502013713 | 58 | 67 | 0.9 | 2.6 | 0.00 | 0.00 | 0.00 | 54 | 1022.4 |
| 20260502011457 | 58 | 45 | 0.9 | 2.6 | 0.00 | 0.00 | 0.00 | 54 | 1022.6 |
| 20260502005340 | 58 | 202 | 0.0 | 0.9 | 0.00 | 0.00 | 0.00 | 54 | 1022.6 |
| 20260502004400 | 58 | 202 | 0.0 | 0.9 | 0.00 | 0.00 | 0.00 | 54 | 1023.0 |
| 20260502003328 | 58 | 112 | 0.0 | 0.9 | 0.00 | 0.00 | 0.00 | 54 | 1023.2 |
| 20260502002306 | 58 | 202 | 0.0 | 0.9 | 0.00 | 0.00 | 0.00 | 55 | 1022.9 |
| 20260502001253 | 58 | 202 | 0.0 | 0.9 | 0.00 | 0.00 | 0.00 | 55 | 1023.1 |
| 20260502000256 | 58 | 90 | 0.9 | 0.9 | 0.00 | 0.00 | 0.00 | 56 | 1023.1 |
| 20260501234119 | 58 | 180 | 0.0 | 2.6 | 0.00 | 0.00 | 0.00 | 56 | 1023.4 |
| 20260501233122 | 58 | 112 | 0.0 | 2.6 | 0.00 | 0.00 | 0.00 | 55 | 1023.3 |
| 20260501232104 | 58 | 112 | 0.0 | 2.6 | 0.00 | 0.00 | 0.00 | 54 | 1023.3 |
| 20260501231053 | 58 | 247 | 0.0 | 0.9 | 0.00 | 0.00 | 0.00 | 55 | 1023.5 |
| 20260501230116 | 58 | 247 | 0.0 | 0.9 | 0.00 | 0.00 | 0.00 | 54 | 1023.5 |
| 20260501225126 | 59 | 247 | 0.9 | 0.9 | 0.00 | 0.00 | 0.00 | 53 | 1023.5 |
| 20260501224137 | 59 | 225 | 0.0 | 0.9 | 0.00 | 0.00 | 0.00 | 52 | 1023.4 |
| 20260501223136 | 59 | 180 | 0.0 | 0.9 | 0.00 | 0.00 | 0.00 | 52 | 1023.5 |
| 20260501222114 | 59 | 247 | 0.0 | 0.9 | 0.00 | 0.00 | 0.00 | 52 | 1023.6 |
| 20260501221059 | 60 | 247 | 0.0 | 2.6 | 0.00 | 0.00 | 0.00 | 52 | 1023.7 |
| 20260501214851 | 60 | 180 | 0.0 | 2.6 | 0.00 | 0.00 | 0.00 | 50 | 1023.6 |
| 20260501213902 | 61 | 202 | 0.9 | 2.6 | 0.00 | 0.00 | 0.00 | 49 | 1023.7 |
| 20260501212918 | 61 | 135 | 0.0 | 2.6 | 0.00 | 0.00 | 0.00 | 48 | 1023.7 |
| 20260501211851 | 62 | 90 | 0.0 | 0.9 | 0.00 | 0.00 | 0.00 | 47 | 1023.7 |
| 20260501210832 | 62 | 135 | 0.0 | 0.9 | 0.00 | 0.00 | 0.00 | 47 | 1023.7 |
| 20260501205837 | 62 | 90 | 0.0 | 0.0 | 0.00 | 0.00 | 0.00 | 46 | 1023.7 |
| 20260501204826 | 63 | 67 | 0.0 | 2.6 | 0.00 | 0.00 | 0.00 | 43 | 1023.9 |
| 20260501203808 | 64 | 67 | 0.0 | 2.6 | 0.00 | 0.00 | 0.00 | 42 | 1023.7 |
| 20260501200512 | 65 | 90 | 0.0 | 2.6 | 0.00 | 0.00 | 0.00 | 40 | 1023.8 |
| 20260501195454 | 66 | 67 | 0.9 | 2.6 | 0.00 | 0.00 | 0.00 | 40 | 1023.8 |
| 20260501194432 | 66 | 112 | 0.0 | 2.6 | 0.00 | 0.00 | 0.00 | 39 | 1023.8 |
| 20260501191134 | 68 | 112 | 0.0 | 0.9 | 0.00 | 0.00 | 0.00 | 36 | 1023.9 |
| 20260501190101 | 68 | 112 | 0.0 | 2.6 | 0.00 | 0.00 | 0.00 | 36 | 1023.8 |
| 20260501185117 | 69 | 90 | 0.0 | 2.6 | 0.00 | 0.00 | 0.00 | 35 | 1023.9 |
| 20260501184105 | 70 | 247 | 0.0 | 3.5 | 0.00 | 0.00 | 0.00 | 34 | 1023.7 |
| 20260501183117 | 70 | 112 | 0.9 | 4.3 | 0.00 | 0.00 | 0.00 | 34 | 1023.7 |
| 20260501182052 | 71 | 225 | 0.9 | 4.3 | 0.00 | 0.00 | 0.00 | 32 | 1023.9 |
| 20260501175928 | 72 | 90 | 0.9 | 4.3 | 0.00 | 0.00 | 0.00 | 32 | 1023.7 |
| 20260501174950 | 73 | 135 | 2.6 | 7.0 | 0.00 | 0.00 | 0.00 | 30 | 1023.7 |
| 20260501173953 | 73 | 112 | 2.6 | 7.0 | 0.00 | 0.00 | 0.00 | 30 | 1023.8 |
| 20260501172953 | 73 | 247 | 2.6 | 10.4 | 0.00 | 0.00 | 0.00 | 30 | 1023.7 |
| 20260501172010 | 74 | 90 | 2.6 | 10.4 | 0.00 | 0.00 | 0.00 | 30 | 1023.5 |
| 20260501170947 | 74 | 67 | 2.6 | 8.7 | 0.00 | 0.00 | 0.00 | 30 | 1023.8 |
| 20260501165921 | 74 | 67 | 0.9 | 5.2 | 0.00 | 0.00 | 0.00 | 29 | 1023.8 |
| 20260501164918 | 75 | 90 | 0.9 | 7.0 | 0.00 | 0.00 | 0.00 | 28 | 1023.6 |
| 20260501163940 | 75 | 112 | 2.6 | 9.6 | 0.00 | 0.00 | 0.00 | 28 | 1023.8 |